Location: Wells
(51.2093°N, 2.6446°W)
Time: 05:34:19
(UTC+01:00)

ITUPSAT 1 - Pass Details

Date: 20 March 2026
Orbit: 686 x 698 km, 98.4° (Epoch: 15 April)

Event Time Altitude Azimuth Distance (km) Brightness Sun altitude
Rises 01:10:07 0° 5° (N) 3,074 ? -37.8°
Reaches altitude 10° 01:12:45 10° 351° (N) 2,151 ? -37.7°
Enters shadow 01:13:45 14° 342° (NNW) 1,864 ? -37.7°
